Regional Weather Roundup
Issued by NWS Charleston, SC

Current Version | Previous Version | Graphics & Text | Print | Product List | Glossary On
Versions: 1 2 3 4 5 6 7 8 9 10 11 12 13 14 15 16 17 18 19 20 21 22 23 24 25 26 27 28 29 30 31 32 33 34 35 36 37 38 39 40 41 42 43 44 45 46 47 48 49 50
000
ASUS42 KCHS 250512
RWRCHS

REGIONAL WEATHER ROUNDUP
NATIONAL WEATHER SERVICE CHARLESTON SC
100 AM EDT TUE JUL 25 2017

NOTE: "FAIR" INDICATES FEW OR NO CLOUDS BELOW 12,000 FEET WITH NO
SIGNIFICANT WEATHER AND/OR OBSTRUCTIONS TO VISIBILITY.

NOT ALL STATIONS ARE QUALITY CONTROLLED. USE DATA WITH CAUTION...
ESPECIALLY DEWPOINT OBSERVATIONS.

SCZ027-030-031-034>040-042>050-250600-
...SOUTHEAST SOUTH CAROLINA...

CITY           SKY/WX    TMP DP  RH WIND       PRES   REMARKS
N CHARLESTON   CLOUDY    75  73  93 S7        30.00S
WATERFRONT PRK   N/A     77  75  93 CALM      29.99R
JOHNS ISLAND   FAIR      79  77  94 SW7       30.01S
PINOPOLIS        N/A     73  73 100 VRB3      29.92F
MONCKS CORNER  FAIR      72  72 100 CALM      30.00S
SUMMERVILLE    FAIR      73  72  94 CALM      30.01S
BEAUFORT MCAS  PTCLDY    77  77 100 S6        30.01S
BEAUFORT ARPT  FAIR      79  73  83 SW6       30.01S
HILTON HEAD IS MOCLDY    77  77 100 CALM      30.02F
WALTERBORO     CLOUDY    73  72  94 CALM      30.01F
ALLENDALE      NOT AVBL

...SOUTHERN MIDLANDS AND PEE DEE...

CITY           SKY/WX    TMP DP  RH WIND       PRES   REMARKS
GEORGETOWN     FAIR      72  72 100 SE3       30.02R
KINGSTREE      FAIR      72  72 100 CALM      30.00S
ORANGEBURG     PTCLDY    74  72  93 CALM      30.00S
BARNWELL       FAIR      75  75 100 CALM      30.00S
AIKEN          FAIR      72  72 100 W5        30.06R
MANNING        FAIR      73  73 100 W12       30.00S
COLUMBIA       CLOUDY    76  73  91 CALM      30.00R
SUMTER         CLOUDY    74  71  90 S5        29.98R
FLORENCE       CLOUDY    74  73  97 SW6       30.00R
MYRTLE BEACH   CLOUDY    75  72  90 SW7       30.02R
N MYRTLE BEACH CLOUDY    76  74  93 SW3       30.00S

$$

GAZ063-065-086>088-099>101-113>116-118-119-134>141-150-250600-
...SOUTHEAST GEORGIA...

CITY           SKY/WX    TMP DP  RH WIND       PRES   REMARKS
SAVANNAH ARPT  MOCLDY   N/A N/A N/A S5        30.03R
HUNTER AAF     PTCLDY    77  75  95 S3        30.00S
FORT STEWART   MOCLDY    76  74  92 CALM      30.00S
STATESBORO     CLOUDY    78  78 100 CALM      30.01R
SYLVANIA       CLOUDY    76  76 100 CALM      30.02S
CLAXTON        FAIR      79  76  91 CALM      30.01R

...CSRA...CENTRAL AND FAR SOUTHEAST GEORGIA...

CITY           SKY/WX    TMP DP  RH WIND       PRES   REMARKS
THOMSON        PTCLDY    73  71  95 CALM      30.07S
AUGUSTA-BUSH   PTCLDY    75  73  93 CALM      30.00S
AUGUSTA-DANIEL CLEAR     75  71  87 CALM      30.02S
SWAINSBORO     FAIR      73  73 100 NW3       30.02S
VIDALIA        PTCLDY    79  77  94 SW3       30.02R
EASTMAN        FAIR      77  77 100 NW3       30.05R
HAZLEHURST     FAIR      78  78 100 S5        30.01S
ALMA           CLOUDY    76  74  93 S5        30.02S
WAYCROSS       CLOUDY    80  80 100 SW5       30.03S HX  91
JESUP          NOT AVBL
BAXLEY         FAIR      77  77 100 SW5       30.02R
BRUNSWICK      PTCLDY    81  77  89 SW6       30.03S
SAINT SIMONS   CLOUDY    82  76  81 SW12G20   30.03S

$$

SCZ027-028-034-036>038-045-046-048>050-GAZ119-141-250600-
...LAKE AND SUPPLEMENTAL COASTAL OBSERVATIONS...

STATION/POSITION TIME  TEMP    WIND        PRES    WAVE   SWELL
                       AIR SEA DIR/SP/G            HT/PER HT/PER/DIR
                 (UTC) (F)     (DEG/KT/KT) (MB)    (FT/S) (FT/S/D)
WINYAH BAY       NOT AVBL
LAKE MURRAY      0420   79     260/  5/  7 1014.9F
ACE BASIN NERRS  0345   79     240/  1     1016.0
FORT PULASKI     0448   80 85  210/  4/  6 1016.6F
SAPELO ISLAND    0400   81     210/  7     1017.0

$$

ANZ835-935-AMZ111-154-330-350-352-354-370-450-454-472-250600-
...C-MAN AND BUOY OBSERVATIONS...

STATION/POSITION TIME  TEMP    WIND        PRES    WAVE   SWELL
                       AIR SEA DIR/SP/G            HT/PER HT/PER/DIR
                 (UTC) (F)     (DEG/KT/KT) (MB)    (FT/S) (FT/S/D)
BUOY 41004       0450   83 81  220/ 17/ 21 1015.8R   4/ 9   2/140/ 9
BUOY 41008       0350   81 81  210/ 12/ 14 1016.1    3/ 5   2/130/ 9
FOLLY BEACH CMAN 0400   82     200/  8/ 11 1016.6R
CAPERS NEARSHORE 0408   79 84  220/ 10/ 16 1015.5R
FRIPP NEARSHORE  0408   82 84  240/ 14/ 19 1015.9R


STATION/POSITION TIME  TEMP    WIND        PRES    WAVE   SWELL
                       AIR SEA DIR/SP/G            HT/PER HT/PER/DIR
                 (UTC) (F)     (DEG/KT/KT) (MB)    (FT/S) (FT/S/D)
5E ST. MARYS GA  0430      77                N/A     2/ 4
FRYING PAN BUOY  0450   82 82  250/ 16/ 17 1016.0R   5/ 7   2/110/10
BUOY 41025       0450   83 84  230/ 21/ 25 1014.6R   7/ 7   2/150/ 9
CAPE LOOKOUT NC  0400   80     220/ 11/ 14 1014.7F
BUOY 41002       0350   83 83  210/ 14/ 17 1019.2    5/ 7   2/100/11
BUOY 41010       0450   84 84  170/ 12/ 14 1019.8F   3/ 9   2/110/ 9
ST AUGUSTINE FL  0500   79 74  200/  7/ 10 1018.6S


$$



USA.gov is the U.S. government's official web portal to all federal, state and local government web resources and services.